This demonstration page uses our WeatherBlox Daily Observations layout. Learn more.

Left ArrowRight Arrow

31.84235, -102.49876

Hourly Observations for May 18, 2015

Temp ( °F °C ) Dew Point ( °F °C ) Humidity (%) Winds ( mph kmh ) Pressure ( in mb ) Visibility ( mi km ) Precip ( " mm )
12:53 am 00:53 Clear 68 20 39 3.9 35 35 SSE 6 9 29.96 1015 10 16 0.00 0.00
1:53 am 01:53 Clear 66 18.9 42 5.6 42 42 SE 8 13 29.96 1015 10 16 0.00 0.00
2:53 am 02:53 Clear 65 18.3 43 6.1 45 45 SSE 9 15 29.96 1014 10 16 0.00 0.00
3:53 am 03:53 Clear 63 17.2 49 9.4 60 60 SSE 7 11 29.96 1014 10 16 0.00 0.00
4:53 am 04:53 Clear 63 17.2 51 10.6 65 65 S 7 11 29.96 1015 10 16 0.00 0.00
5:40 am 05:40 Mostly Cloudy 64 17.8 54 12.2 70 70 SSE 7 11 30.00 1016 10 16 0.00 0.00
5:53 am 05:53 Cloudy 66 18.9 58 14.4 75 75 S 8 13 29.97 1015 10 16 0.00 0.00
6:36 am 06:36 Mostly Cloudy 67 19.4 60 15.6 79 79 S 7 11 30.00 1016 10 16 0.00 0.00
6:50 am 06:50 Partly Cloudy 66 19 61 16 83 83 S 6 9 30.00 1016 9 14 0.00 0.00
6:53 am 06:53 Mostly Sunny 66 18.9 60 15.6 81 81 S 6 9 29.98 1015 9 14 0.00 0.00
7:35 am 07:35 Mostly Cloudy 66 18.9 61 16.1 84 84 E 5 7 30.00 1016 8 13 0.00 0.00
7:53 am 07:53 Partly Cloudy 68 20 61 16.1 78 78 SE 6 9 29.99 1016 9 14 0.00 0.00
8:53 am 08:53 Hazy 71 21.7 64 17.8 79 79 S 9 15 30.01 1016 6 10 0.00 0.00
9:53 am 09:53 Hazy 72 22.2 64 17.8 76 76 S 7 11 30.02 1017 6 10 0.00 0.00
10:53 am 10:53 Sunny 77 25 63 17.2 62 62 SSE 10 17 30.01 1016 7 11 0.00 0.00
11:53 am 11:53 Sunny 81 27.2 62 16.7 53 53 SE 12 19 30.01 1016 8 13 0.00 0.00
12:53 pm 12:53 Mostly Sunny 84 28.9 60 15.6 44 44 SE 14 22 29.99 1016 9 14 0.00 0.00
1:53 pm 13:53 Sunny 86 30 55 12.8 35 35 SE 15 24 29.97 1015 10 16 0.00 0.00
2:53 pm 14:53 Mostly Sunny 87 30.6 53 11.7 31 31 SE 18 30 29.94 1014 10 16 0.00 0.00
3:53 pm 15:53 Mostly Sunny 89 31.7 55 12.8 31 31 ESE 14 22 29.92 1013 10 16 0.00 0.00
4:53 pm 16:53 Mostly Sunny 88 31.1 53 11.7 30 30 SE 20 31 29.89 1012 10 16 0.00 0.00
5:53 pm 17:53 Sunny 84 28.9 50 10 31 31 SE 20 31 29.90 1013 10 16 0.00 0.00
6:53 pm 18:53 Partly Cloudy 83 28.3 54 12.2 37 37 SE 17 28 29.89 1012 10 16 0.00 0.00
7:53 pm 19:53 Partly Cloudy with Nearby Thunderstorms 82 27.8 55 12.8 40 40 ESE 14 22 29.86 1011 10 16 0.00 0.00
8:53 pm 20:53 Cloudy with Nearby Thunderstorms 79 26.1 57 13.9 47 47 SE 12 19 29.87 1012 10 16 0.00 0.03
9:31 pm 21:31 Cloudy with Light Rain 72 22.2 61 16.1 68 68 SSE 31 50 29.94 1014 8 13 0.00 0.03
9:38 pm 21:38 Cloudy with Nearby Thunderstorms 68 20 60 15.6 76 76 SE 28 44 29.94 1014 8 13 0.00 0.03
9:53 pm 21:53 Cloudy with Nearby Thunderstorms 67 19.4 59 15 76 76 SE 20 31 29.93 1014 10 16 0.01 0.25
10:05 pm 22:05 Cloudy with Thunderstorms 67 19.4 58 14.4 73 73 SE 16 26 29.94 1014 8 13 0.01 0.25
10:53 pm 22:53 Cloudy with Thunderstorms 68 20 61 16.1 78 78 ESE 13 20 29.96 1015 7 11 0.05 1.27
11:05 pm 23:05 Cloudy with Nearby Thunderstorms 67 19.4 63 17.2 87 87 E 13 20 29.97 1015 2 3 0.21 5.33
11:17 pm 23:17 Mostly Cloudy with Nearby Thunderstorms 67 19.4 62 16.7 84 84 E 16 26 29.97 1015 9 14 0.22 5.59
11:31 pm 23:31 Windy with Storms Likely 67 19.4 63 17.2 87 87 ESE 20 31 29.94 1014 10 16 0.22 5.59
11:51 pm 23:51 Mostly Cloudy with Light Rain 66 19 63 17 88 88 SE 23 37 29.97 1015 8 13 0.23 5.84
11:53 pm 23:53 Mostly Cloudy with Light Rain 67 19.4 63 17.2 87 87 SE 25 41 29.92 1013 9 14 0.23 5.84

Powered by AerisWeather